TimeCST,TemperatureF,Dew PointF,Humidity,Sea Level PressureIn,VisibilityMPH,Wind Direction,Wind SpeedMPH,Gust SpeedMPH,PrecipitationIn,Events,Conditions,WindDirDegrees,DateUTC
12:15 AM,24.8,24.8,100,29.99,8.0,ESE,8.1,-,N/A,,Clear,120,2013-02-08 06:15:00
12:35 AM,24.8,24.8,100,29.98,8.0,ESE,4.6,-,N/A,,Clear,110,2013-02-08 06:35:00
12:55 AM,24.8,24.8,100,29.97,10.0,Calm,Calm,-,N/A,,Clear,0,2013-02-08 06:55:00
1:15 AM,24.8,24.8,100,29.97,10.0,Calm,Calm,-,N/A,,Clear,0,2013-02-08 07:15:00
1:35 AM,24.8,24.8,100,29.96,10.0,Calm,Calm,-,N/A,,Clear,0,2013-02-08 07:35:00
1:55 AM,26.6,26.6,100,29.96,10.0,ESE,4.6,-,N/A,,Clear,120,2013-02-08 07:55:00
2:15 AM,24.8,24.8,100,29.96,10.0,East,4.6,-,N/A,,Clear,100,2013-02-08 08:15:00
2:35 AM,24.8,24.8,100,29.95,10.0,East,3.5,-,N/A,,Clear,80,2013-02-08 08:35:00
2:55 AM,26.6,24.8,93,29.96,10.0,East,4.6,-,N/A,,Clear,80,2013-02-08 08:55:00
3:35 AM,23.0,23.0,100,29.95,8.0,ESE,9.2,-,N/A,,Clear,120,2013-02-08 09:35:00
3:55 AM,23.0,23.0,100,29.94,6.0,ESE,8.1,-,N/A,,Clear,120,2013-02-08 09:55:00
4:15 AM,24.8,24.8,100,29.93,7.0,ESE,5.8,-,N/A,,Clear,110,2013-02-08 10:15:00
4:35 AM,24.8,24.8,100,29.92,9.0,SE,3.5,-,N/A,,Clear,130,2013-02-08 10:35:00
4:55 AM,24.8,24.8,100,29.92,10.0,Calm,Calm,-,N/A,,Clear,0,2013-02-08 10:55:00
5:15 AM,24.8,24.8,100,29.92,10.0,SE,11.5,-,N/A,,Clear,140,2013-02-08 11:15:00
5:35 AM,24.8,24.8,100,29.93,10.0,SE,4.6,-,N/A,,Clear,140,2013-02-08 11:35:00
5:55 AM,23.0,23.0,100,29.92,10.0,SSE,8.1,-,N/A,,Clear,150,2013-02-08 11:55:00
6:15 AM,24.8,23.0,93,29.92,10.0,South,8.1,-,N/A,,Clear,170,2013-02-08 12:15:00
6:35 AM,24.8,24.8,100,29.93,5.0,SSE,9.2,-,N/A,,Mostly Cloudy,160,2013-02-08 12:35:00
6:55 AM,26.6,24.8,93,29.92,2.0,South,10.4,-,N/A,,Overcast,170,2013-02-08 12:55:00
7:15 AM,24.8,24.8,100,29.92,2.5,SSE,6.9,-,N/A,,Overcast,160,2013-02-08 13:15:00
7:35 AM,24.8,24.8,100,29.92,2.0,SE,4.6,-,N/A,,Overcast,140,2013-02-08 13:35:00
7:55 AM,24.8,24.8,100,29.92,4.0,SSE,5.8,-,N/A,,Overcast,160,2013-02-08 13:55:00
8:15 AM,24.8,24.8,100,29.92,6.0,South,9.2,-,N/A,,Overcast,170,2013-02-08 14:15:00
8:35 AM,26.6,24.8,93,29.92,10.0,South,9.2,-,N/A,,Overcast,170,2013-02-08 14:35:00
8:55 AM,26.6,24.8,93,29.92,10.0,South,8.1,-,N/A,,Overcast,170,2013-02-08 14:55:00
9:15 AM,26.6,24.8,93,29.92,10.0,South,9.2,-,N/A,,Overcast,170,2013-02-08 15:15:00
9:35 AM,26.6,24.8,93,29.92,10.0,South,6.9,-,N/A,,Overcast,170,2013-02-08 15:35:00
9:55 AM,26.6,24.8,93,29.93,10.0,South,9.2,-,N/A,,Overcast,180,2013-02-08 15:55:00
10:15 AM,26.6,24.8,93,29.93,10.0,South,9.2,-,N/A,,Overcast,180,2013-02-08 16:15:00
10:35 AM,26.6,24.8,93,29.92,10.0,South,10.4,-,N/A,,Overcast,170,2013-02-08 16:35:00
10:55 AM,26.6,24.8,93,29.92,10.0,South,10.4,-,N/A,,Overcast,170,2013-02-08 16:55:00
11:15 AM,26.6,24.8,93,29.92,10.0,SSE,9.2,-,N/A,,Overcast,160,2013-02-08 17:15:00
11:35 AM,26.6,24.8,93,29.92,10.0,SSE,10.4,-,N/A,,Overcast,160,2013-02-08 17:35:00
11:55 AM,28.4,24.8,86,29.92,10.0,South,8.1,-,N/A,,Overcast,170,2013-02-08 17:55:00
12:15 PM,28.4,26.6,93,29.91,10.0,South,6.9,-,N/A,,Overcast,180,2013-02-08 18:15:00
12:35 PM,28.4,24.8,86,29.90,10.0,SSE,5.8,-,N/A,,Overcast,160,2013-02-08 18:35:00
12:55 PM,28.4,26.6,93,29.90,10.0,South,6.9,-,N/A,,Overcast,170,2013-02-08 18:55:00
1:15 PM,30.2,26.6,86,29.89,10.0,SSE,8.1,-,N/A,,Overcast,160,2013-02-08 19:15:00
1:35 PM,30.2,26.6,86,29.89,10.0,South,6.9,-,N/A,,Scattered Clouds,170,2013-02-08 19:35:00
1:55 PM,32.0,26.6,80,29.88,10.0,SSE,4.6,-,N/A,,Scattered Clouds,160,2013-02-08 19:55:00
2:15 PM,32.0,26.6,80,29.88,10.0,WSW,4.6,-,N/A,,Partly Cloudy,240,2013-02-08 20:15:00
2:35 PM,32.0,26.6,80,29.87,10.0,WSW,3.5,-,N/A,,Clear,250,2013-02-08 20:35:00
2:55 PM,32.0,26.6,80,29.87,10.0,West,3.5,-,N/A,,Clear,270,2013-02-08 20:55:00
3:15 PM,32.0,26.6,80,29.87,10.0,WSW,4.6,-,N/A,,Clear,240,2013-02-08 21:15:00
3:35 PM,32.0,26.6,80,29.87,10.0,SW,3.5,-,N/A,,Clear,220,2013-02-08 21:35:00
3:55 PM,32.0,26.6,80,29.88,10.0,West,3.5,-,N/A,,Clear,280,2013-02-08 21:55:00
4:15 PM,32.0,26.6,80,29.87,10.0,Calm,Calm,-,N/A,,Clear,0,2013-02-08 22:15:00
4:35 PM,32.0,26.6,80,29.86,10.0,Calm,Calm,-,N/A,,Clear,0,2013-02-08 22:35:00
4:55 PM,30.2,26.6,86,29.86,10.0,Calm,Calm,-,N/A,,Clear,0,2013-02-08 22:55:00
5:35 PM,28.4,24.8,86,29.86,10.0,Calm,Calm,-,N/A,,Clear,0,2013-02-08 23:35:00
5:55 PM,24.8,23.0,93,29.86,10.0,Calm,Calm,-,N/A,,Clear,0,2013-02-08 23:55:00
6:15 PM,26.6,24.8,93,29.86,10.0,Calm,Calm,-,N/A,,Clear,0,2013-02-09 00:15:00
6:35 PM,24.8,24.8,100,29.87,10.0,Calm,Calm,-,N/A,,Clear,0,2013-02-09 00:35:00
6:55 PM,23.0,23.0,100,29.87,10.0,Calm,Calm,-,N/A,,Clear,0,2013-02-09 00:55:00
7:15 PM,23.0,21.2,93,29.87,10.0,Calm,Calm,-,N/A,,Clear,0,2013-02-09 01:15:00
7:35 PM,23.0,21.2,93,29.88,10.0,Calm,Calm,-,N/A,,Clear,0,2013-02-09 01:35:00
7:55 PM,21.2,19.4,93,29.88,8.0,Calm,Calm,-,N/A,,Clear,0,2013-02-09 01:55:00
8:15 PM,19.4,19.4,100,29.88,8.0,Calm,Calm,-,N/A,,Clear,0,2013-02-09 02:15:00
8:35 PM,19.4,19.4,100,29.88,5.0,WSW,3.5,-,N/A,Snow,Light Snow,240,2013-02-09 02:35:00
8:55 PM,19.4,19.4,100,29.89,7.0,SW,3.5,-,N/A,,Clear,230,2013-02-09 02:55:00
9:15 PM,17.6,17.6,100,29.88,6.0,Calm,Calm,-,N/A,,Clear,0,2013-02-09 03:15:00
9:35 PM,19.4,17.6,93,29.88,3.0,Calm,Calm,-,N/A,,Clear,0,2013-02-09 03:35:00
9:55 PM,19.4,19.4,100,29.89,5.0,Calm,Calm,-,N/A,,Clear,0,2013-02-09 03:55:00
10:15 PM,17.6,17.6,100,29.89,5.0,SW,4.6,-,N/A,,Clear,230,2013-02-09 04:15:00
10:35 PM,17.6,17.6,100,29.89,7.0,SW,4.6,-,N/A,,Scattered Clouds,220,2013-02-09 04:35:00
10:55 PM,17.6,17.6,100,29.89,5.0,Calm,Calm,-,N/A,,Mostly Cloudy,0,2013-02-09 04:55:00
11:35 PM,15.8,14.0,93,29.87,5.0,SSW,3.5,-,N/A,,Scattered Clouds,210,2013-02-09 05:35:00
11:55 PM,15.8,15.8,100,29.87,0.5,SW,4.6,-,N/A,Snow,Snow,230,2013-02-09 05:55:00